[[{"header":{"parameterUnit":"m.s-1","parameterCategory":2,"la1":30.2992,"la2":30.254,"lo1":-89.0895,"lo2":-89.0443,"dy":0.0025,"dx":0.0025,"nx":19,"ny":19,"refTime":"2026-03-08T03:00:00:Z","depth":"0","parameterNumber":2,"parameterNumberName":"U-component_of_CURRENTS"},"data":[0,0,0,0.1508,0.1509,0.1542,0.1542,0.154,0.154,0,0,0,0,0,0,0,0,0,0,0,0.1494,0.1494,0.1508,0.1509,0.1542,0.1542,0.154,0.154,0,0,0,0,0,0,0,0,0,0,0,0.1493,0.1494,0.1494,0.1509,0.1542,0.1542,0.154,0.1524,0,0,0,0,0,0,0,0,0,0,0.1497,0.1493,0.1494,0.1494,0.151,0.1542,0.1542,0.1524,0.1525,0.1516,0,0.1528,0,0.1539,0.154,0.154,0,0,0,0.15,0.1492,0.1503,0.1494,0.151,0.1542,0.1524,0.1525,0.1526,0.1517,0.1528,0.1528,0.1539,0.154,0.154,0.1583,0.1583,0,0,0.1498,0.1495,0.1503,0.1505,0.1527,0.1523,0.1526,0.1526,0.1529,0.1528,0.1529,0.1539,0.154,0.154,0.1582,0.1583,0,0,0,0.1499,0.1494,0.1505,0.1504,0.1517,0.1525,0.1527,0.1529,0.1534,0.1529,0.1539,0.154,0.154,0.1582,0.1582,0.1634,0,0,0,0.1497,0.1495,0.1505,0.1502,0.1517,0.153,0.153,0.1533,0.1534,0.1539,0.154,0.154,0.1581,0.1582,0.1632,0.1635,0,0,0,0.1491,0.1494,0.1501,0.1502,0.1522,0.153,0.1535,0.1534,0.154,0.154,0.154,0.1581,0.1582,0.1629,0.1631,0.1698,0,0,0,0.1481,0.1497,0.1501,0.1527,0.1521,0.1555,0.1535,0.156,0.1565,0.154,0.1581,0.1582,0.1629,0.1629,0.1695,0.1704,0.1717,0,0,0.1495,0.1499,0.1515,0.152,0.1552,0.155,0.1587,0.1586,0.1577,0.1575,0.1576,0.1633,0.1631,0.1697,0.1772,0.1783,0,0,0,0.1516,0.152,0.1534,0.1554,0.158,0.1598,0.1607,0.1621,0.1641,0.1588,0.1642,0.1639,0.168,0.1679,0.1689,0.1706,0.1588,0.1588,0.1588,0.1502,0.1524,0.1543,0.157,0.1594,0.1635,0.1665,0.1682,0.1672,0.1701,0.169,0.1781,0.1782,0.1789,0.1808,0.1709,0.1709,0.171,0.171,0.1506,0.1506,0.1538,0.1561,0.1594,0.1623,0.1695,0.172,0.1789,0.1752,0.179,0.1743,0.1803,0.1818,0.1713,0.1713,0.1712,0.1712,0.1711,0.1478,0.1477,0.1499,0.1522,0.1553,0.1606,0.1681,0.1752,0.1815,0.1862,0.188,0.1879,0.1886,0.1895,0.1895,0.1895,0.1896,0.1896,0.1896,0.1429,0.145,0.1446,0.1475,0.1484,0.1547,0.1677,0.1767,0.1889,0.1928,0.1928,0.1923,0.1838,0.1824,0.1901,0.19,0.19,0.1899,0.1899,0.1379,0.1382,0.1373,0.1378,0.1419,0.146,0.1612,0.1803,0.192,0.1983,0.2037,0.1978,0.1963,0.1955,0.1944,0.2048,0.2048,0.2048,0.2048,0.1326,0.1333,0.1305,0.1301,0.1334,0.1418,0.1527,0.1717,0.1959,0.2058,0.2109,0.2068,0.2061,0.205,0.2039,0.2028,0.2151,0.2152,0.2152,0.1284,0.1284,0.1245,0.125,0.1281,0.1369,0.1433,0.1582,0.1953,0.2157,0.2138,0.2134,0.2072,0.2059,0.2033,0.2018,0.1996,0,0]},{"header":{"parameterUnit":"m.s-1","parameterCategory":2,"la1":30.2992,"la2":30.254,"lo1":-89.0895,"lo2":-89.0443,"dy":0.0025,"dx":0.0025,"nx":19,"ny":19,"refTime":"2026-03-08T03:00:00:Z","depth":"0","parameterNumber":3,"parameterNumberName":"V-component_of_CURRENTS"},"data":[0,0,0,0.0041,0.004,-0.0028,-0.0028,-0.0113,-0.0113,0,0,0,0,0,0,0,0,0,0,0,0.0064,0.0064,0.0041,0.004,-0.0028,-0.0028,-0.0113,-0.0113,0,0,0,0,0,0,0,0,0,0,0,0.0064,0.0064,0.0064,0.004,-0.0028,-0.0028,-0.0113,-0.0065,0,0,0,0,0,0,0,0,0,0,-0.0001,0.0027,0.0064,0.0064,0.0039,-0.0027,-0.0028,-0.0063,-0.0068,-0.0077,0,-0.0079,0,-0.0092,-0.0118,-0.0118,0,0,0,0.0026,0.0031,0.0014,0.0064,0.0039,-0.0027,-0.0001,-0.0066,-0.0072,-0.0084,-0.008,-0.0084,-0.0093,-0.0118,-0.0118,-0.0125,-0.0125,0,0,0.003,0.0047,0.0018,0.0011,0.0033,0.0001,-0.0003,-0.007,-0.0071,-0.0081,-0.0086,-0.0095,-0.0119,-0.0119,-0.0125,-0.0125,0,0,0,0.005,0.005,0.0034,0.0014,0.0005,-0.0,-0.0005,-0.0069,-0.0073,-0.0087,-0.0096,-0.0119,-0.012,-0.0126,-0.0125,-0.0034,0,0,0,0.0051,0.0063,0.0036,0.0045,0.0007,-0.0032,-0.0002,-0.0069,-0.0077,-0.0095,-0.0119,-0.012,-0.0126,-0.0125,-0.0038,0.0036,0,0,0,0.0065,0.0064,0.006,0.0047,0.0024,-0.0031,-0.0041,-0.0071,-0.0082,-0.0118,-0.0121,-0.0127,-0.0126,-0.0041,0.003,0.0082,0,0,0,0.008,0.0085,0.0061,0.0064,0.0025,0.0009,-0.0041,-0.0065,-0.0091,-0.0119,-0.0126,-0.0125,-0.0042,0.0025,0.0078,0.0135,0.0159,0,0,0.0096,0.0087,0.009,0.0067,0.0071,0.0016,0.0027,-0.0032,-0.0079,-0.0108,-0.0108,-0.0036,0.0029,0.0082,0.0192,0.0214,0,0,0,0.0101,0.0108,0.0104,0.0099,0.0076,0.008,0.0018,0.0005,-0.002,-0.0087,-0.0042,-0.0003,0.0027,0.0052,0.007,-0.0018,-0.0121,-0.0121,-0.0121,0.0149,0.0137,0.0156,0.0147,0.014,0.0118,0.0127,0.01,0.003,0.004,0.0066,0.0166,0.0192,0.0207,0.0116,0.0041,0.0041,0.0042,0.0042,0.0195,0.0213,0.021,0.0223,0.0225,0.0233,0.0236,0.0209,0.0232,0.0155,0.0178,0.0141,0.0232,0.0127,0.0048,0.0047,0.0046,0.0045,0.0045,0.0236,0.0247,0.0253,0.0283,0.0323,0.0319,0.0414,0.039,0.0337,0.0369,0.0361,0.036,0.0273,0.0359,0.0359,0.036,0.036,0.0361,0.0361,0.0275,0.0287,0.0321,0.035,0.0389,0.0463,0.052,0.0564,0.0554,0.0494,0.0493,0.0306,0.0263,0.0257,0.037,0.0368,0.0367,0.0366,0.0366,0.0326,0.0329,0.038,0.0421,0.0523,0.0649,0.0694,0.0778,0.0779,0.0783,0.0528,0.055,0.0531,0.0516,0.0515,0.0689,0.0689,0.0689,0.0689,0.0364,0.0367,0.0442,0.0522,0.0643,0.0741,0.0914,0.0941,0.08,0.0692,0.061,0.0526,0.0516,0.049,0.0475,0.0469,0.0628,0.0627,0.0627,0.0406,0.0418,0.0483,0.055,0.0694,0.0855,0.1007,0.1058,0.0814,0.0611,0.0481,0.0484,0.0339,0.0332,0.0266,0.0252,0.0234,0,0]}],[{"header":{"parameterUnit":"m.s-1","parameterCategory":2,"la1":30.2992,"la2":30.254,"lo1":-89.0895,"lo2":-89.0443,"dy":0.0025,"dx":0.0025,"nx":19,"ny":19,"refTime":"2026-03-08T03:00:00:Z","depth":"2","parameterNumber":2,"parameterNumberName":"U-component_of_CURRENTS"},"data":[0,0,0,0.154,0.1541,0.1589,0.1589,0.1608,0.1608,0,0,0,0,0,0,0,0,0,0,0,0.1522,0.1523,0.154,0.1542,0.1589,0.1589,0.1608,0.1608,0,0,0,0,0,0,0,0,0,0,0,0.1522,0.1522,0.1523,0.1542,0.1589,0.1589,0.1608,0.1581,0,0,0,0,0,0,0,0,0,0,0.154,0.1533,0.1522,0.1523,0.1542,0.1589,0.1589,0.158,0.1582,0.1577,0,0.159,0,0.1603,0.1609,0.1609,0,0,0,0.1535,0.1531,0.1544,0.1523,0.1543,0.1588,0.1566,0.1582,0.1584,0.158,0.159,0.1592,0.1603,0.1609,0.1609,0.166,0.1661,0,0,0.1532,0.1529,0.1542,0.1546,0.1562,0.1564,0.1567,0.1584,0.1589,0.1591,0.1592,0.1603,0.1609,0.1609,0.166,0.166,0,0,0,0.1529,0.1527,0.154,0.1544,0.1558,0.1566,0.1569,0.1588,0.1593,0.1593,0.1603,0.1609,0.1609,0.1659,0.166,0.1699,0,0,0,0.1528,0.1526,0.1539,0.1537,0.1558,0.158,0.1573,0.1591,0.1594,0.1603,0.1609,0.1609,0.1659,0.166,0.1697,0.1701,0,0,0,0.1519,0.1525,0.1532,0.1536,0.156,0.158,0.1586,0.1592,0.1601,0.1609,0.1609,0.1659,0.166,0.1695,0.1698,0.1766,0,0,0,0.1509,0.1528,0.1533,0.1562,0.156,0.1601,0.1586,0.1618,0.163,0.1609,0.1659,0.166,0.1694,0.1696,0.1764,0.1731,0.174,0,0,0.1526,0.153,0.1548,0.1554,0.1591,0.1594,0.1635,0.1644,0.1642,0.1648,0.165,0.1697,0.1698,0.1766,0.1794,0.1801,0,0,0,0.1549,0.1555,0.1571,0.1594,0.1625,0.1645,0.166,0.1676,0.1701,0.1656,0.1709,0.1708,0.175,0.1725,0.1731,0.1665,0.1665,0.1665,0.1665,0.1538,0.1561,0.1584,0.1611,0.1639,0.1684,0.1715,0.1735,0.1729,0.1756,0.1749,0.1836,0.1809,0.1813,0.1766,0.1766,0.1766,0.1766,0.1766,0.1545,0.1547,0.158,0.1607,0.1638,0.1671,0.1741,0.1765,0.1835,0.1801,0.1841,0.1777,0.1822,0.1769,0.1769,0.1768,0.1768,0.1768,0.1768,0.1519,0.1518,0.1541,0.1567,0.16,0.1652,0.1728,0.1797,0.1857,0.1903,0.19,0.1899,0.1863,0.1937,0.1937,0.1937,0.1938,0.1938,0.1938,0.147,0.1492,0.1488,0.152,0.1531,0.1596,0.1726,0.1808,0.191,0.1937,0.1937,0.1893,0.1888,0.1874,0.1943,0.1942,0.1942,0.1941,0.1941,0.1423,0.1424,0.1417,0.1422,0.1469,0.1507,0.1656,0.182,0.1931,0.1975,0.1972,0.197,0.1958,0.1952,0.194,0.2023,0.2023,0.2023,0.2023,0.1369,0.1377,0.135,0.135,0.1387,0.1466,0.1548,0.1678,0.1844,0.1888,0.1894,0.1827,0.1827,0.1804,0.1801,0.1784,0.1826,0.1826,0.1825,0.1328,0.1327,0.129,0.1301,0.1339,0.1416,0.1434,0.1462,0.163,0.1813,0.1816,0.2018,0.1932,0.1927,0.1899,0.1892,0.1868,0,0]},{"header":{"parameterUnit":"m.s-1","parameterCategory":2,"la1":30.2992,"la2":30.254,"lo1":-89.0895,"lo2":-89.0443,"dy":0.0025,"dx":0.0025,"nx":19,"ny":19,"refTime":"2026-03-08T03:00:00:Z","depth":"2","parameterNumber":3,"parameterNumberName":"V-component_of_CURRENTS"},"data":[0,0,0,-0.0084,-0.0084,-0.0129,-0.013,-0.0204,-0.0205,0,0,0,0,0,0,0,0,0,0,0,-0.0068,-0.0068,-0.0083,-0.0084,-0.0129,-0.013,-0.0204,-0.0205,0,0,0,0,0,0,0,0,0,0,0,-0.0068,-0.0068,-0.0068,-0.0084,-0.0129,-0.013,-0.0204,-0.0169,0,0,0,0,0,0,0,0,0,0,-0.0124,-0.0099,-0.0068,-0.0068,-0.0084,-0.0129,-0.013,-0.0167,-0.0171,-0.0184,0,-0.0182,0,-0.019,-0.0209,-0.0209,0,0,0,-0.0097,-0.0096,-0.0109,-0.0068,-0.0085,-0.0129,-0.0113,-0.0169,-0.0174,-0.0189,-0.0183,-0.0186,-0.0191,-0.0209,-0.021,-0.022,-0.0219,0,0,-0.0095,-0.008,-0.0105,-0.0111,-0.0084,-0.0111,-0.0114,-0.0172,-0.0172,-0.0183,-0.0187,-0.0192,-0.021,-0.021,-0.022,-0.022,0,0,0,-0.0079,-0.0078,-0.0089,-0.0108,-0.0112,-0.0112,-0.0115,-0.0169,-0.0173,-0.0188,-0.0193,-0.021,-0.0211,-0.022,-0.022,-0.0141,0,0,0,-0.0078,-0.0067,-0.0087,-0.0079,-0.011,-0.0138,-0.0111,-0.0169,-0.0175,-0.0193,-0.021,-0.0211,-0.0221,-0.022,-0.0144,-0.0079,0,0,0,-0.0068,-0.0067,-0.0068,-0.0078,-0.0092,-0.0137,-0.0144,-0.0171,-0.0178,-0.0209,-0.0212,-0.0221,-0.022,-0.0146,-0.0085,-0.0046,0,0,0,-0.0057,-0.0044,-0.0067,-0.0055,-0.0091,-0.0098,-0.0144,-0.016,-0.0182,-0.021,-0.0221,-0.022,-0.0147,-0.0089,-0.0049,-0.0045,-0.0028,0,0,-0.0033,-0.0041,-0.0033,-0.0055,-0.0043,-0.0093,-0.008,-0.0131,-0.0174,-0.0206,-0.0207,-0.0143,-0.0086,-0.0046,0.0004,0.0019,0,0,0,-0.0021,-0.0011,-0.0013,-0.0012,-0.003,-0.0031,-0.0084,-0.0099,-0.0125,-0.0181,-0.0148,-0.0114,-0.0092,-0.0097,-0.0085,-0.0216,-0.0216,-0.0216,-0.0216,0.0033,0.0022,0.0045,0.0036,0.0031,0.0007,0.0009,-0.0022,-0.0081,-0.0075,-0.0054,0.0028,0.0022,0.0032,-0.0077,-0.0076,-0.0076,-0.0076,-0.0076,0.0084,0.0101,0.0095,0.0113,0.0107,0.0112,0.0099,0.0073,0.0083,0.002,0.0036,-0.0019,0.005,-0.0069,-0.0071,-0.0071,-0.0072,-0.0073,-0.0073,0.0126,0.0135,0.0143,0.017,0.0199,0.0188,0.0256,0.0229,0.0175,0.0198,0.0162,0.016,0.0089,0.0191,0.0191,0.0192,0.0192,0.0192,0.0193,0.0164,0.0175,0.0206,0.0231,0.0261,0.0318,0.0353,0.0376,0.034,0.0273,0.0272,0.0118,0.0109,0.0104,0.02,0.0199,0.0198,0.0197,0.0197,0.0214,0.0215,0.0261,0.0294,0.0374,0.047,0.0496,0.0526,0.0512,0.0491,0.0302,0.0297,0.0276,0.0264,0.0262,0.0394,0.0394,0.0394,0.0394,0.0247,0.025,0.0315,0.0378,0.0474,0.0544,0.0662,0.0647,0.0542,0.0443,0.0441,0.0374,0.0365,0.0343,0.033,0.0326,0.0475,0.0476,0.0476,0.0283,0.0293,0.0348,0.0404,0.0516,0.0634,0.0734,0.0723,0.0549,0.0479,0.0456,0.0399,0.029,0.028,0.0233,0.0217,0.0206,0,0]}],[{"header":{"parameterUnit":"m.s-1","parameterCategory":2,"la1":30.2992,"la2":30.254,"lo1":-89.0895,"lo2":-89.0443,"dy":0.0025,"dx":0.0025,"nx":19,"ny":19,"refTime":"2026-03-08T03:00:00:Z","depth":"4","parameterNumber":2,"parameterNumberName":"U-component_of_CURRENTS"},"data":[0,0,0,0.103,0.1032,0.1121,0.1122,0.1187,0.1188,0,0,0,0,0,0,0,0,0,0,0,0.1,0.1001,0.103,0.1032,0.1121,0.1122,0.1187,0.1188,0,0,0,0,0,0,0,0,0,0,0,0.0999,0.1,0.1001,0.1033,0.1121,0.1122,0.1187,0.113,0,0,0,0,0,0,0,0,0,0,0.1048,0.1028,0.1,0.1002,0.1033,0.1121,0.1122,0.1128,0.1133,0.1135,0,0.116,0,0.1179,0.1192,0.1192,0,0,0,0.1024,0.1024,0.1052,0.1002,0.1034,0.1121,0.1079,0.1131,0.1138,0.1143,0.1161,0.1164,0.118,0.1192,0.1192,0.1292,0.1293,0,0,0.1019,0.1009,0.1047,0.1056,0.1071,0.1076,0.1082,0.1136,0.1144,0.1162,0.1166,0.1181,0.1193,0.1193,0.1291,0.1292,0,0,0,0.1011,0.1006,0.1033,0.1053,0.1075,0.1079,0.1086,0.1142,0.1153,0.1167,0.1182,0.1193,0.1194,0.1291,0.1292,0.1321,0,0,0,0.1007,0.1001,0.1031,0.1025,0.1075,0.1116,0.1091,0.1149,0.1156,0.1181,0.1193,0.1194,0.129,0.1291,0.1319,0.1319,0,0,0,0.0993,0.1,0.1015,0.1024,0.1067,0.1116,0.113,0.1151,0.1165,0.1192,0.1194,0.1289,0.1291,0.1317,0.1316,0.1358,0,0,0,0.0971,0.0989,0.1015,0.1041,0.1066,0.1122,0.113,0.1175,0.1201,0.1193,0.129,0.1292,0.1316,0.1314,0.1356,0.1191,0,0,0,0.0974,0.0989,0.1003,0.1028,0.1074,0.1109,0.117,0.1208,0.1225,0.1266,0.1269,0.132,0.1316,0.1357,0.1283,0,0,0,0,0.099,0.1004,0.1021,0.106,0.1106,0.1166,0.1213,0.1241,0.1302,0.125,0.1343,0.1339,0.1364,0.1264,0.1299,0.1299,0.1299,0.1298,0.1298,0.0969,0.1001,0.1034,0.1087,0.1133,0.1214,0.1262,0.1316,0.1328,0.137,0.1381,0.1455,0.1351,0.1408,0.1408,0.1408,0.1409,0.1409,0.1409,0.0967,0.0984,0.1049,0.1096,0.1173,0.1241,0.133,0.1362,0.1442,0.1432,0.1456,0.1323,0.1412,0.1412,0.1411,0.1411,0.141,0.141,0.141,0.0937,0.0951,0.1003,0.1087,0.1175,0.1265,0.1337,0.1407,0.1466,0.1499,0.1412,0.1482,0.146,0.1528,0.1528,0.1528,0.1528,0.1528,0.1528,0.088,0.0932,0.0983,0.1074,0.1135,0.1221,0.1347,0.1395,0.1473,0.1427,0.1519,0.1495,0.1491,0.1468,0.1532,0.1531,0.1531,0.153,0.153,0.0831,0.0871,0.0933,0.0992,0.1104,0.1145,0.1277,0.1338,0.1385,0.1387,0.1391,0.1397,0.1371,0.1371,0.1342,0.1371,0.1369,0.1367,0,0.0794,0.0817,0.0898,0.096,0.1009,0.1095,0.1114,0.1192,0.1272,0.1229,0.1394,0.1397,0.14,0.1368,0.1364,0.1329,0,0,0,0.0772,0.0805,0.084,0.0913,0.0959,0.1013,0.1111,0.1108,0.1249,0.1255,0.132,0.1332,0.1452,0.1541,0.1516,0.1511,0.1473,0,0]},{"header":{"parameterUnit":"m.s-1","parameterCategory":2,"la1":30.2992,"la2":30.254,"lo1":-89.0895,"lo2":-89.0443,"dy":0.0025,"dx":0.0025,"nx":19,"ny":19,"refTime":"2026-03-08T03:00:00:Z","depth":"4","parameterNumber":3,"parameterNumberName":"V-component_of_CURRENTS"},"data":[0,0,0,-0.013,-0.013,-0.014,-0.014,-0.0144,-0.0144,0,0,0,0,0,0,0,0,0,0,0,-0.0126,-0.0126,-0.013,-0.013,-0.014,-0.014,-0.0144,-0.0144,0,0,0,0,0,0,0,0,0,0,0,-0.0126,-0.0126,-0.0126,-0.013,-0.014,-0.014,-0.0144,-0.0138,0,0,0,0,0,0,0,0,0,0,-0.013,-0.0129,-0.0126,-0.0126,-0.0131,-0.014,-0.014,-0.0138,-0.0139,-0.0138,0,-0.0141,0,-0.0143,-0.0144,-0.0144,0,0,0,-0.0129,-0.0128,-0.0131,-0.0126,-0.0131,-0.014,-0.0135,-0.0139,-0.0139,-0.0138,-0.0141,-0.0141,-0.0144,-0.0144,-0.0144,-0.0163,-0.0163,0,0,-0.0128,-0.0128,-0.013,-0.0131,-0.0135,-0.0135,-0.0136,-0.0139,-0.014,-0.0141,-0.0141,-0.0144,-0.0144,-0.0144,-0.0163,-0.0163,0,0,0,-0.0128,-0.0127,-0.013,-0.0131,-0.0134,-0.0135,-0.0136,-0.014,-0.0141,-0.0141,-0.0144,-0.0144,-0.0144,-0.0162,-0.0163,-0.0135,0,0,0,-0.0127,-0.0127,-0.013,-0.0129,-0.0134,-0.0139,-0.0137,-0.0141,-0.0141,-0.0144,-0.0144,-0.0144,-0.0162,-0.0163,-0.0135,-0.011,0,0,0,-0.0125,-0.0127,-0.0129,-0.0129,-0.0135,-0.0139,-0.014,-0.0141,-0.0143,-0.0144,-0.0145,-0.0162,-0.0162,-0.0136,-0.0112,-0.01,0,0,0,-0.0124,-0.0106,-0.0129,-0.0107,-0.0134,-0.0118,-0.014,-0.013,-0.0128,-0.0144,-0.0162,-0.0163,-0.0136,-0.0112,-0.0101,-0.0042,0,0,0,-0.0094,-0.0103,-0.0087,-0.0107,-0.0081,-0.0116,-0.0104,-0.0115,-0.0138,-0.016,-0.016,-0.0135,-0.0112,-0.01,-0.0068,0,0,0,0,-0.0072,-0.0064,-0.0057,-0.0053,-0.0055,-0.0071,-0.0089,-0.0112,-0.014,-0.0141,-0.0152,-0.0138,-0.0131,-0.0101,-0.0165,-0.0165,-0.0165,-0.0165,-0.0165,-0.0034,-0.0032,-0.0009,-0.0012,-0.0012,-0.004,-0.0058,-0.01,-0.0118,-0.0139,-0.0128,-0.0116,-0.0085,-0.015,-0.015,-0.015,-0.015,-0.015,-0.015,0.0011,0.0022,0.0015,0.0038,0.0014,0.001,-0.004,-0.0067,-0.0099,-0.0126,-0.0121,-0.009,-0.0147,-0.0148,-0.0148,-0.0148,-0.0149,-0.0149,-0.0149,0.0032,0.0036,0.0047,0.0061,0.006,0.0034,0.0032,-0.0017,-0.0066,-0.0067,-0.0038,-0.0097,-0.0084,-0.0065,-0.0065,-0.0065,-0.0064,-0.0064,-0.0064,0.0043,0.0054,0.0073,0.0084,0.0094,0.0097,0.0071,0.006,0.0011,0.0007,-0.0053,-0.0087,-0.009,-0.008,-0.0062,-0.0062,-0.0063,-0.0063,-0.0063,0.0061,0.0063,0.0097,0.0112,0.0139,0.0146,0.0131,0.013,0.0121,0.0111,0.0038,0.0033,0.0031,0.0026,0.004,0.0094,0.0095,0.0096,0,0.0066,0.0071,0.0113,0.0144,0.0176,0.0172,0.0204,0.0195,0.0143,0.0139,0.0094,0.0011,0.0007,0.0003,-0.0001,0.0015,0,0,0,0.007,0.0085,0.0115,0.0151,0.0189,0.0208,0.0212,0.0217,0.0151,0.0179,0.0118,0.0112,0.0029,-0.0055,-0.0071,-0.0074,-0.0058,0,0]}]]